Weather History for KBNO - October, 2013

Change the Weather History Date:

Saturday, October 12, 2013

  Actual Average Record
Temperature  
Mean Temperature 41 °F 46 °F  
Max Temperature 56 °F 64 °F 82 °F (1991)
Min Temperature 26 °F 28 °F 12 °F (2002)
Degree Days  
Heating Degree Days 24 19  
Month to date heating degree days 280 204  
Since 1 July heating degree days 572 623  
Cooling Degree Days 0 0  
Month to date cooling degree days 0 0  
Year to date cooling degree days 372 215  
Moisture  
Dew Point 31 °F    
Average Humidity 65    
Maximum Humidity 92    
Minimum Humidity 38    
Precipitation  
Precipitation 0.00 in 0.02 in 0.35 in (1962)
Month to date precipitation 0.04 0.23  
Year to date precipitation 5.97 7.65  
Sea Level Pressure  
Sea Level Pressure 30.01 in    
Wind  
Wind Speed 6 mph (WNW)    
Max Wind Speed 17 mph    
Max Gust Speed 22 mph    
Visibility 10 miles    
Events      
T = Trace of Precipitation, MM = Missing Value Source: NWS Daily Summary

Daily Weather History Graph

Daily Weather History Graph

Search for Another Location

Airport or City:

Trip Planner

Search our weather history database for the weather conditions in past years. The results will help you decide how hot, cold, wet, or windy it might be!

Date:

Astronomy

Oct. 12, 2013 Rise Set
Actual Time 7:06 AM PDT 6:16 PM PDT
Civil Twilight 6:37 AM PDT 6:45 PM PDT
Nautical Twilight 6:04 AM PDT 7:18 PM PDT
Astronomical Twilight 5:31 AM PDT 7:52 PM PDT
Moon 2:40 PM PDT (10/12) 12:04 AM PDT (10/12)
Length of Visible Light 12h 07m
Length of Day
11h 10m
First Quarter, 60% of the Moon is Illuminated
Oct 12
First Quarter
Oct 18
Full
Oct 26
Last Quarter
Nov 3
New
Nov 9
First Quarter

Hourly Weather History & Observations

Time (PDT) Temp. Windchill Dew Point Humidity Pressure Visibility Wind Dir Wind Speed Gust Speed Precip Events Conditions
12:53 AM 35.1 °F 32.2 °F 30.0 °F 82% 30.02 in 10.0 mi West 3.5 mph - N/A   Partly Cloudy
1:53 AM 34.0 °F - 28.9 °F 82% 30.02 in 10.0 mi Calm Calm - N/A   Partly Cloudy
2:53 AM 32.0 °F 28.7 °F 28.9 °F 88% 30.01 in 10.0 mi West 3.5 mph - N/A   Mostly Cloudy
3:53 AM 28.9 °F - 27.0 °F 92% 30.01 in 10.0 mi Calm Calm - N/A   Clear
4:53 AM 28.0 °F 21.7 °F 25.0 °F 88% 30.01 in 10.0 mi West 5.8 mph - N/A   Clear
5:53 AM 28.0 °F - 25.0 °F 88% 30.02 in 10.0 mi Calm Calm - N/A   Partly Cloudy
6:53 AM 30.9 °F - 27.0 °F 85% 30.02 in 10.0 mi Calm Calm - N/A   Overcast
7:53 AM 30.0 °F - 28.0 °F 92% 30.04 in 10.0 mi Calm Calm - N/A   Overcast
8:53 AM 37.0 °F 34.5 °F 30.9 °F 79% 30.03 in 10.0 mi SE 3.5 mph - N/A   Overcast
9:53 AM 39.9 °F - 32.0 °F 73% 30.02 in 10.0 mi Calm Calm - N/A   Mostly Cloudy
10:53 AM 43.0 °F - 33.1 °F 68% 30.01 in 10.0 mi Calm Calm - N/A   Overcast
11:53 AM 48.9 °F - 34.0 °F 56% 29.98 in 10.0 mi Calm Calm - N/A   Scattered Clouds
12:53 PM 52.0 °F - 32.0 °F 47% 29.95 in 10.0 mi Variable 3.5 mph - N/A   Mostly Cloudy
1:53 PM 53.1 °F - 28.0 °F 38% 29.94 in 10.0 mi Variable 3.5 mph - N/A   Overcast
2:53 PM 53.1 °F - 28.9 °F 40% 29.94 in 10.0 mi SSW 11.5 mph - N/A   Scattered Clouds
3:53 PM 50.0 °F - 33.1 °F 52% 29.97 in 10.0 mi NW 13.8 mph - N/A   Partly Cloudy
4:53 PM 48.9 °F - 35.1 °F 59% 29.99 in 10.0 mi NW 13.8 mph 18.4 mph N/A   Overcast
5:53 PM 45.0 °F 38.5 °F 35.1 °F 68% 30.01 in 10.0 mi WNW 13.8 mph - N/A   Mostly Cloudy
6:53 PM 42.1 °F 37.1 °F 33.1 °F 70% 30.02 in 10.0 mi NNW 8.1 mph - N/A   Overcast
7:53 PM 39.9 °F 36.7 °F 33.1 °F 77% 30.04 in 10.0 mi North 4.6 mph - N/A   Clear
8:53 PM 37.9 °F 31.5 °F 32.0 °F 79% 30.04 in 10.0 mi WNW 9.2 mph - N/A   Clear
9:53 PM 37.0 °F 29.3 °F 32.0 °F 82% 30.05 in 10.0 mi West 11.5 mph - N/A   Clear
10:53 PM 37.0 °F 29.8 °F 32.0 °F 82% 30.06 in 10.0 mi West 10.4 mph - N/A   Clear
11:53 PM 35.1 °F 28.6 °F 30.9 °F 85% 30.06 in 10.0 mi West 8.1 mph - N/A   Clear